Back to catalog

COSMOS 2251 DEB

AliveLEO
NORAD 35446·DEBRIS·🇷🇺 Russia

Launched Jun 16, 1993 from Plesetsk Cosmodrome

Loading…

Next Passes (next 24 hours)

TLE

FreshSource: Space-Track

Epoch: Sep 14, 2026, 10:29 UTC

1 35446U 93036AKQ 26257.43730722  .00000187  00000-0  48933-4 0  9990
2 35446  74.0475 156.7906 0076226 205.8976 153.8365 14.54854270920175

Track COSMOS 2251 DEB in real time with AllMySat

Download on the App Store